Wind_Speed
4 6 6 8 9 11 11 10 8 7 6 6 4 4 4 3 4 2 2 2 2 1 2 4 4 4 6 8 9 10 10 10 10
2 1 3 5 5 7 6 7 4 4 3 3 3 4 5 5 3 4 2 1 1 1 3 4 3 4 6 8 10 10 11 12 12
2 5 3 3 2 1 2 2 4 2 3 2 2 2 2 2 1 4 5 3 2 3 4 6 6 5 5 7 9 11 13 13 13
8 6 4 4 3 5 6 5 4 3 3 4 4 5 6 6 8 5 7 8 6 7 8 8 8 8 7 8 8 10 11 14 15
7 4 7 6 6 9 10 11 11 10 10 10 8 6 8 8 10 8 8 6 11 9 8 7 8 11 11 11 12 13 13 14 15
5 6 9 10 10 12 15 14 15 15 14 14 14 12 11 13 14 14 11 11 9 13 13 11 12 13 15 15 16 16 18 20 21
9 11 14 18 23 24 19 18 18 17 18 18 16 16 17 17 16 17 17 17 17 18 19 18 15 15 16 17 18 18 18 20 24
14 14 15 18 20 23 24 23 22 22 21 21 21 19 17 19 21 21 21 21 22 23 23 23 21 19 20 20 22 24 24 24 23
17 17 15 16 22 25 25 22 23 24 24 24 24 24 21 21 22 24 25 25 25 26 26 26 26 25 25 26 26 28 30 30 29
22 20 19 23 27 28 29 29 28 27 27 27 26 26 26 26 25 26 26 27 28 29 29 29 29 29 30 31 32 32 34 35 35
23 23 26 28 31 32 30 31 32 31 30 31 30 29 29 29 28 27 26 27 28 30 31 32 33 34 35 34 35 36 38 40 40
26 27 30 31 34 33 31 32 32 31 31 31 31 33 35 35 33 31 30 31 31 32 33 35 36 36 37 37 37 39 40 43 44
28 28 30 33 35 34 34 35 34 33 33 34 35 36 37 37 37 37 37 37 36 36 35 35 36 37 39 40 42 43 43 46 48
33 33 33 33 33 36 38 37 36 36 36 37 38 39 39 38 39 39 39 38 38 38 38 39 39 41 44 45 45 45 47 49 50
34 33 33 36 39 39 38 39 39 39 39 39 40 41 41 40 40 40 40 39 39 40 41 41 44 46 46 45 46 47 48 50 53
36 39 40 40 41 40 40 40 39 39 38 39 40 41 40 40 40 40 40 39 40 41 43 44 45 44 45 46 49 51 54 56 56
38 38 39 41 41 41 40 39 39 39 39 39 39 39 39 40 40 39 39 40 42 42 43 43 42 43 45 48 51 55 58 56 55
35 35 35 36 37 37 39 39 39 38 38 39 39 39 39 39 38 39 41 42 42 41 39 39 40 44 48 53 52 49 50 50 50
34 34 36 37 37 37 37 38 38 39 39 39 39 39 39 39 40 41 42 39 37 37 36 39 42 44 45 46 47 49 49 47 48
34 36 35 36 36 37 36 37 38 39 40 40 39 39 40 41 41 38 35 35 34 34 36 37 38 41 44 44 45 43 42 45 46
Wind_Direction
149 144 137 131 130 122 119 112 106 105 119 115 109 81 65 61 57 44 38 73 90 218 216 210 205 235 248 242 240 251 256 259 260
286 186 141 131 139 125 114 111 106 125 127 121 122 126 107 83 35 2 285 227 196 214 270 251 241 230 227 246 258 267 270 272 272
230 265 244 190 148 130 129 147 169 216 261 291 317 322 304 291 257 284 250 246 226 247 235 258 248 229 239 249 252 258 265 267 271
242 249 280 325 349 334 316 304 305 274 270 275 286 297 288 270 283 323 246 242 257 251 269 263 261 264 270 267 267 264 260 272 276
227 252 289 307 323 321 315 316 309 305 306 306 298 268 266 273 278 282 298 237 271 240 248 279 280 267 278 298 289 281 278 278 282
291 266 273 269 286 315 310 296 290 293 290 289 292 285 268 265 271 277 270 265 255 251 254 256 266 273 278 281 282 279 283 285 286
277 287 277 265 272 283 294 295 289 285 278 277 276 279 279 277 274 275 273 264 257 250 245 252 261 274 283 283 278 279 279 282 283
267 273 266 268 271 273 284 288 291 285 285 282 278 273 270 270 274 273 270 265 260 259 258 256 262 271 280 284 282 281 281 283 287
265 261 272 272 273 272 272 276 282 284 285 287 287 284 278 273 273 276 278 274 265 259 258 261 261 267 274 278 279 277 280 283 284
257 257 268 269 269 267 267 276 278 283 284 282 281 278 277 274 271 271 272 273 272 271 269 267 265 269 274 276 276 276 275 277 280
254 261 261 262 266 270 270 274 278 278 281 281 283 283 283 280 276 273 273 274 274 272 269 267 268 271 273 273 273 274 273 275 277
259 259 263 260 264 272 272 274 277 280 281 283 287 286 286 284 283 283 281 278 277 276 275 275 274 273 273 274 276 274 274 275 276
256 258 257 261 267 272 273 276 278 280 282 283 283 282 282 283 285 286 286 285 284 281 277 275 274 274 275 278 280 276 275 276 278
257 261 264 268 267 270 273 275 275 276 276 278 280 280 280 280 280 280 281 281 280 279 279 280 278 278 280 280 276 273 275 277 278
260 260 263 266 268 272 272 274 275 277 277 278 279 279 279 279 280 280 280 280 280 280 279 278 279 280 280 277 278 279 281 281 281
261 261 264 265 270 272 274 275 277 277 277 276 277 276 278 279 279 280 283 285 284 283 283 283 284 283 283 284 285 286 287 286 285
258 261 264 268 271 273 273 274 275 274 274 273 274 276 279 280 282 284 284 282 282 283 285 284 283 285 288 289 290 289 286 284 280
261 263 265 267 269 271 273 274 274 274 275 275 277 278 279 283 285 284 285 286 286 286 285 286 289 293 294 294 292 287 283 281 279
265 265 266 267 269 271 273 275 276 277 278 279 281 285 288 288 288 289 289 287 285 285 288 294 297 297 295 293 288 286 285 281 283
266 269 272 272 272 273 276 277 278 279 280 283 286 288 288 289 290 288 284 284 284 287 294 295 295 293 293 291 289 285 282 282 282
Height
5906 5904 5906 5906 5907 5906 5904 5905 5906 5906 5906 5907 5908 5911 5912 5913 5912 5911 5910 5908 5907 5907 5907 5907 5907 5908 5908 5909 5909 5910 5911 5912 5913
5907 5905 5907 5907 5907 5907 5904 5904 5905 5906 5906 5907 5908 5910 5911 5912 5911 5911 5909 5907 5906 5906 5907 5907 5906 5906 5906 5907 5908 5908 5909 5910 5910
5906 5906 5907 5908 5908 5907 5907 5906 5906 5907 5906 5906 5908 5909 5910 5910 5909 5908 5907 5906 5905 5906 5905 5906 5906 5904 5905 5905 5905 5905 5906 5906 5906
5905 5905 5907 5908 5907 5907 5909 5908 5907 5907 5907 5908 5909 5908 5908 5909 5907 5906 5906 5905 5904 5904 5905 5904 5905 5904 5903 5903 5903 5903 5902 5903 5902
5904 5903 5905 5906 5906 5906 5906 5906 5906 5905 5904 5905 5907 5908 5907 5906 5904 5905 5904 5903 5902 5901 5902 5902 5902 5902 5901 5900 5899 5899 5899 5899 5899
5902 5902 5903 5904 5905 5905 5905 5905 5904 5904 5903 5903 5903 5904 5905 5904 5902 5901 5901 5901 5900 5899 5899 5899 5899 5898 5897 5896 5896 5895 5895 5894 5894
5901 5902 5901 5902 5902 5903 5903 5902 5902 5901 5901 5900 5900 5900 5900 5900 5899 5898 5897 5897 5897 5896 5896 5896 5895 5894 5893 5892 5892 5891 5890 5889 5889
5898 5898 5898 5898 5899 5898 5898 5898 5897 5895 5894 5894 5895 5895 5895 5894 5893 5893 5892 5892 5892 5891 5891 5891 5890 5889 5888 5887 5886 5885 5884 5883 5883
5894 5894 5894 5894 5895 5894 5894 5893 5891 5890 5889 5888 5887 5888 5888 5889 5888 5886 5885 5885 5886 5886 5886 5884 5883 5883 5881 5881 5880 5878 5877 5875 5876
5888 5888 5889 5889 5888 5888 5888 5887 5886 5884 5883 5882 5882 5882 5881 5881 5881 5880 5879 5878 5878 5877 5877 5877 5876 5874 5873 5872 5871 5870 5868 5867 5866
5882 5883 5882 5881 5881 5881 5881 5880 5878 5877 5876 5875 5873 5872 5872 5873 5872 5872 5871 5870 5869 5869 5868 5867 5866 5865 5864 5863 5862 5860 5858 5857 5856
5876 5876 5876 5875 5873 5873 5873 5872 5871 5870 5868 5866 5865 5864 5863 5862 5862 5862 5862 5862 5861 5859 5858 5856 5855 5854 5853 5851 5851 5848 5846 5844 5844
5867 5867 5867 5867 5866 5866 5865 5863 5862 5861 5860 5859 5858 5857 5856 5854 5853 5852 5851 5850 5848 5847 5847 5846 5844 5842 5841 5839 5838 5835 5833 5830 5829
5858 5859 5859 5858 5858 5857 5856 5855 5854 5853 5852 5851 5850 5848 5847 5846 5844 5842 5841 5840 5838 5836 5834 5832 5831 5830 5828 5826 5825 5823 5820 5817 5815
5850 5850 5850 5849 5848 5847 5847 5846 5845 5844 5842 5840 5839 5838 5836 5834 5832 5830 5829 5828 5826 5824 5822 5821 5819 5817 5815 5813 5810 5808 5806 5802 5800
5840 5840 5840 5839 5838 5837 5837 5836 5835 5834 5833 5831 5830 5828 5826 5824 5822 5820 5817 5816 5814 5812 5809 5808 5806 5803 5800 5798 5794 5791 5787 5784 5780
5830 5830 5830 5830 5829 5827 5826 5826 5825 5824 5823 5821 5819 5817 5815 5813 5811 5809 5807 5804 5802 5799 5797 5795 5792 5789 5786 5783 5779 5774 5769 5766 5763
5821 5821 5820 5819 5818 5817 5815 5814 5813 5812 5811 5809 5808 5806 5804 5802 5799 5797 5794 5791 5788 5786 5782 5781 5778 5774 5770 5766 5762 5756 5752 5749 5747
5810 5809 5809 5808 5807 5806 5805 5803 5802 5800 5799 5798 5795 5793 5791 5788 5786 5783 5780 5777 5774 5772 5770 5767 5763 5759 5755 5750 5747 5742 5737 5735 5732
5798 5798 5797 5797 5796 5795 5793 5792 5790 5789 5787 5786 5784 5781 5779 5776 5774 5771 5769 5767 5764 5761 5757 5753 5750 5746 5742 5738 5733 5728 5724 5720 5717